Content
SEND FEEDBACK

Daily
Averages
Monthly
Summary
United States of America

NEW YORK, NEW YORK


Home > North America > United States > New York
Elevation: 131 feet     Latitude: 40 47N     Longitude: 073 58W

WEATHER
 
SELECT A DAY
Number of Records: 148,086;   Date Range: 11/1/95 - 7/26/14
 
SHARE

PRINT THIS DATA

[ ← Previous Day ]
WEATHER ALMANAC - JULY 1, 2013
[ Next Day → ]
[ °C ]   °F
We're sorry. There is no daily almanac available for New York, New York on July 1, 2013.
WEATHER BY HOUR - JULY 1, 2013
[ °C ]   °F
Local TimeTemperatureDewpointHumidityBarometerVisibilityWind DirectionWind SpeedGust SpeedPrecipitationEventsConditions
12:51 AM75.0 °F70.0 °F84 %29.92 in8.0 miCalmOvercast
1:13 AM75.0 °F70.0 °F84 %29.95 in8.0 miSE (140°)4.6 mphOvercast
1:51 AM75.0 °F70.0 °F84 %29.92 in8.0 miCalmOvercast
2:51 AM73.9 °F70.0 °F87 %29.91 in8.0 miVariable3.5 mphOvercast
3:51 AM73.9 °F70.0 °F87 %29.91 in9.0 miCalmOvercast
4:51 AM73.9 °F70.0 °F87 %29.91 in9.0 miCalmOvercast
5:51 AM73.9 °F70.0 °F87 %29.93 in9.0 miCalmOvercast
6:51 AM75.0 °F70.0 °F84 %29.94 in7.0 miVariable4.6 mphOvercast
7:51 AM75.0 °F71.1 °F87 %29.94 in6.0 miNorthOvercast
8:51 AM75.9 °F72.0 °F87 %29.95 in7.0 miVariable4.6 mphOvercast
9:51 AM75.9 °F71.1 °F85 %29.93 in7.0 miVariable6.9 mph19.6 mphOvercast
9:58 AM75.0 °F72.0 °F90 %29.97 in0.8 miSouth (190°)8.1 mph18.4 mph0.04 inRainHeavy Rain
10:14 AM73.0 °F71.1 °F93 %29.99 in0.2 miWSW (240°)9.2 mph25.3 mph0.59 inFog-RainLight Rain
10:18 AM73.0 °F71.1 °F93 %30.00 in2.0 miWSW (240°)9.2 mph25.3 mph0.60 inRainLight Rain
10:37 AM73.0 °F72.0 °F96 %30.00 in4.0 miNorth0.62 inRainLight Rain
10:51 AM73.0 °F71.1 °F93 %29.98 in6.0 miWest (280°)4.6 mph0.62 inRainLight Rain
11:07 AM73.0 °F71.1 °F93 %30.01 in1.5 miVariable4.6 mph0.01 inRainHeavy Rain
11:11 AM73.0 °F71.1 °F93 %30.01 in0.8 miVariable4.6 mph0.05 inRainHeavy Rain
11:16 AM72.0 °F71.1 °F97 %30.01 in0.8 miWest (260°)4.6 mph0.09 inRainHeavy Rain
11:25 AM72.0 °F71.1 °F97 %30.00 in1.2 miCalm0.16 inRainHeavy Rain
11:32 AM73.0 °F71.1 °F93 %30.01 in3.0 miCalm0.18 inRainRain
11:49 AM73.4 °F71.6 °F94 %30.01 in7.0 miCalm0.18 inOvercast
11:51 AM73.0 °F71.1 °F93 %29.98 in8.0 miCalm0.18 inOvercast
12:51 PM73.9 °F73.0 °F97 %29.99 in5.0 miVariable4.6 mph0.01 inRainLight Rain
1:38 PM75.0 °F73.0 °F94 %30.02 in4.0 miNorth0.00 inRainLight Rain
1:51 PM75.0 °F73.0 °F94 %29.99 in6.0 miVariable3.5 mph0.00 inRainLight Rain
2:16 PM73.9 °F73.0 °F97 %30.01 in7.0 miVariable4.6 mph0.00 inOvercast
2:51 PM73.9 °F73.0 °F97 %29.99 in2.5 miNorth0.02 inRainRain
2:59 PM73.9 °F73.0 °F97 %30.01 in4.0 miVariable3.5 mph0.01 inRainLight Rain
3:26 PM73.9 °F73.0 °F97 %30.01 in5.0 miSouth (170°)5.8 mph0.01 inRainLight Rain
3:37 PM75.0 °F73.0 °F94 %30.00 in4.0 miVariable4.6 mph0.01 inMostly Cloudy
3:51 PM75.0 °F73.0 °F94 %29.98 in4.0 miSSE (160°)5.8 mph0.01 inScattered Clouds
3:58 PM75.0 °F73.0 °F94 %30.01 in3.0 miCalm0.00 inRainLight Rain
4:06 PM73.9 °F73.0 °F97 %30.00 in3.0 miVariable5.8 mph0.00 inMostly Cloudy
4:34 PM73.9 °F72.0 °F93 %30.01 in4.0 miVariable6.9 mph0.00 inMostly Cloudy
4:51 PM73.9 °F72.0 °F93 %29.98 in5.0 miVariable5.8 mph0.00 inRainLight Rain
5:11 PM73.9 °F72.0 °F93 %30.01 in8.0 miVariable4.6 mph0.00 inMostly Cloudy
5:29 PM73.0 °F72.0 °F96 %30.01 in6.0 miVariable6.9 mph0.00 inMostly Cloudy
5:48 PM73.4 °F71.6 °F94 %30.01 in5.0 miVariable5.8 mph0.00 inOvercast
5:51 PM73.0 °F71.1 °F93 %29.99 in5.0 miVariable4.6 mph0.00 inOvercast
6:32 PM73.0 °F71.1 °F93 %30.01 in5.0 miVariable4.6 mphOvercast
6:51 PM73.0 °F71.1 °F93 %29.99 in5.0 miCalmMostly Cloudy
6:58 PM73.0 °F71.1 °F93 %30.02 in5.0 miCalmScattered Clouds
7:18 PM73.0 °F71.1 °F93 %30.03 in6.0 miVariable4.6 mphMostly Cloudy
7:51 PM73.0 °F71.1 °F93 %30.02 in6.0 miNorthOvercast
8:51 PM73.0 °F71.1 °F93 %30.02 in8.0 miVariable3.5 mphOvercast
9:51 PM73.0 °F71.1 °F93 %30.04 in8.0 miVariable3.5 mphOvercast
10:51 PM73.0 °F71.1 °F93 %30.05 in8.0 miVariable3.5 mphOvercast
11:51 PM73.0 °F71.1 °F93 %30.06 in8.0 miSSE (160°)4.6 mphOvercast
Hourly data recorded from KNYC, located miles away from New York, New York







STORIES FROM OUR PARTNERS